Showing default

FLOCK 4G 6, 62660

Orbit data source: Space-Track

FLOCK 4G 6, 62660 is a payload satellite owned by Planet (US) in SSO that was launched on Tue, 14 Jan 2025 UTC via an FALCON 9 launch vehicle from the Air Force Western Test Range (AFWTR). Payload-class satellites include a variety of spacecraft equipped with specific instruments for various scientific and technological missions. These include communications satellites like Starlink; space stations such as the ISS; scientific satellites like the Hubble; Earth observation satellites from companies like Planet Labs, Umbra, and HawkEye 360; GPS; miniature CubeSats for education and research; and military/defense satellites.

Loading next visibility...
Identifier
62660, 2025-009BD
Orbit
SSO
Country
Flag of USUS
Related business
Manufacturer
Planet
Mission
Operational Commercial Imaging
Bus & Motor
CUBESAT 3U, Unknown motor
Mass
5.7 kg wet, 5.7 kg dry
Launch date (UTC)
2025-01-14 (1 year ago)
Launch vehicle
FALCON 9
Launch site
Air Force Western Test Range (AFWTR)
Object type
Payload
Rocket body
Debris
Shape & HBR
Box + 2 Pan, 1.0 m
Radar Cross Section
0.072 m², Medium (>0.1 m² and < 1m²)

Expand to show TLE details & history
Last TLE update: 10 hours ago

TLE from 10 hours ago
0 FLOCK 4G 6
1 62660U 25009BD  26126.13678314  .00008453  00000-0  30473-3 0  9996
2 62660  97.3942 207.8063 0004906 117.1215 243.0526 15.28780019130073
Epoch: 2026-05-06T03:16Z
TLE epoch observation values (Epoch: 2026-05-06T03:16:58.063Z)
Latitude
0.00001°
Longitude
-65.43723°
Altitude
484.087 km
Speed
7.622 km/s
True Right ascension
13h 51m 13s
True Declination
0° 00' 00"
Sunlit
Object was in full shadow at epoch
Visualization orbit readout
Latitude
Unknown
Longitude
Unknown
Altitude
Unknown
Speed
Unknown
Apparent Right ascension
Unknown
Apparent Declination
Unknown
Sunlit
N/A
Visualization observer readout
Local Sidereal Time
21:22:26
Azimuth
Unknown
Elevation
Unknown
Doppler factor
Unknown
Orbital elements
Apogee altitude
479.775 km
Perigee altitude
473.049 km
Semi-major axis
6,854.549 km
Eccentricity
0.00049
Inclination
97.3942°
RAAN
207.8063°
Arg. of periapsis
117.1215°
True anomaly
243.0025°
Mean anomaly
243.0526°
Eccentric anomaly
243.02755°
Mean motion
3.8245 °/min
Orbital period
94.13 mins
BSTAR
0.00030473
Loading maneuver chart data...
Computing Atmospheric mass density...
Loading historical data...
Loading historical data...
Loading historical data...
Loading historical data...
Loading historical data...
Loading historical data...
Loading historical data...

Documentation

Showing up to 5 results
|